| time (UTC) | temp F | wind direction | speed MPH | gust MPH | rain 1hr in | rain 24hr in | rain mn in | humidity % | barometer mb |
| 20260904190853 | 83 | 31 | 0.0 | 0.0 | 185.49 | 0.00 | 0.10 | 66 | 1016.7 |
| 20260904190353 | 83 | 31 | 0.0 | 0.0 | 185.49 | 0.00 | 0.10 | 68 | 1016.8 |
| 20260904185852 | 83 | 31 | 0.0 | 0.0 | 185.49 | 0.00 | 0.10 | 67 | 1016.9 |
| 20260904185353 | 83 | 31 | 0.0 | 0.0 | 185.49 | 0.00 | 0.10 | 67 | 1017.0 |
| 20260904184853 | 82 | 31 | 0.0 | 0.0 | 185.49 | 0.00 | 0.10 | 69 | 1017.3 |
| 20260904184353 | 82 | 31 | 0.0 | 0.0 | 185.49 | 0.00 | 0.10 | 68 | 1017.3 |
| 20260904183353 | 81 | 31 | 0.0 | 0.0 | 185.49 | 0.00 | 0.10 | 76 | 1017.1 |
| 20260904182853 | 80 | 31 | 0.0 | 0.0 | 185.49 | 0.00 | 0.10 | 74 | 1017.2 |
| 20260904182352 | 80 | 31 | 0.0 | 0.0 | 185.49 | 0.00 | 0.10 | 79 | 1017.3 |
| 20260904181853 | 79 | 31 | 0.0 | 0.0 | 185.49 | 0.00 | 0.10 | 79 | 1017.3 |
| 20260904181352 | 79 | 31 | 0.0 | 0.0 | 185.49 | 0.00 | 0.10 | 81 | 1017.4 |
| 20260904180852 | 78 | 31 | 0.0 | 0.0 | 185.49 | 0.00 | 0.10 | 83 | 1017.5 |
| 20260904180353 | 78 | 31 | 0.0 | 0.0 | 185.49 | 0.00 | 0.10 | 81 | 1017.5 |
| 20260904175352 | 78 | 31 | 0.0 | 0.0 | 185.49 | 0.00 | 0.10 | 82 | 1017.6 |
| 20260904174853 | 78 | 59 | 4.0 | 0.0 | 185.49 | 0.00 | 0.10 | 83 | 1017.5 |
| 20260904174353 | 79 | 287 | 0.0 | 0.0 | 185.49 | 0.00 | 0.10 | 84 | 1017.7 |
| 20260904173852 | 79 | 287 | 0.0 | 0.0 | 185.49 | 0.00 | 0.10 | 83 | 1017.7 |
| 20260904173353 | 79 | 287 | 1.0 | 0.0 | 185.47 | 0.00 | 0.08 | 83 | 1017.6 |
| 20260904172852 | 79 | 359 | 0.0 | 0.0 | 185.45 | 0.00 | 0.06 | 83 | 1017.5 |
| 20260904172352 | 79 | 4 | 0.0 | 0.0 | 185.45 | 0.00 | 0.06 | 82 | 1017.3 |
| 20260904171854 | 79 | 4 | 0.0 | 0.0 | 185.44 | 0.00 | 0.05 | 81 | 1017.2 |
| 20260904171352 | 79 | 4 | 0.0 | 0.0 | 185.43 | 0.00 | 0.04 | 81 | 1016.9 |
| 20260904170852 | 79 | 4 | 0.0 | 0.0 | 185.42 | 0.00 | 0.03 | 80 | 1016.9 |
| 20260904170353 | 80 | 4 | 0.0 | 0.0 | 185.42 | 0.00 | 0.03 | 80 | 1016.9 |
| 20260904165854 | 80 | 4 | 0.0 | 0.0 | 185.42 | 0.00 | 0.03 | 79 | 1017.0 |
| 20260904165352 | 80 | 4 | 0.0 | 0.0 | 185.41 | 0.00 | 0.02 | 78 | 1016.9 |
| 20260904165013 | 81 | 4 | 0.0 | 0.0 | 185.41 | 0.00 | 0.02 | 78 | 1017.4 |
| 20260904164853 | 81 | 4 | 0.0 | 0.0 | 185.41 | 0.00 | 0.02 | 78 | 1017.4 |
| 20260904164352 | 81 | 4 | 0.0 | 0.0 | 185.41 | 0.00 | 0.02 | 77 | 1017.8 |
| 20260904163853 | 81 | 4 | 0.0 | 0.0 | 185.41 | 0.00 | 0.02 | 77 | 1017.8 |
| 20260904163012 | 82 | 4 | 0.0 | 0.0 | 185.41 | 0.00 | 0.02 | 76 | 1017.7 |
| 20260904162852 | 82 | 4 | 0.0 | 0.0 | 185.41 | 0.00 | 0.02 | 76 | 1017.7 |
| 20260904162517 | 82 | 4 | 0.0 | 0.0 | 185.41 | 0.00 | 0.02 | 75 | 1017.8 |
| 20260904162352 | 82 | 4 | 0.0 | 0.0 | 185.41 | 0.00 | 0.02 | 75 | 1017.8 |
| 20260904161853 | 82 | 4 | 0.0 | 0.0 | 185.41 | 0.00 | 0.02 | 75 | 1017.7 |
| 20260904161353 | 82 | 4 | 0.0 | 0.0 | 185.41 | 0.00 | 0.02 | 74 | 1017.8 |
| 20260904160353 | 81 | 4 | 0.0 | 0.0 | 185.41 | 0.00 | 0.02 | 77 | 1017.5 |
| 20260904155852 | 81 | 4 | 0.0 | 0.0 | 185.41 | 0.00 | 0.02 | 78 | 1017.2 |
| 20260904155354 | 81 | 4 | 0.0 | 0.0 | 185.41 | 0.00 | 0.02 | 78 | 1017.3 |
| 20260904154352 | 80 | 4 | 0.0 | 0.0 | 185.41 | 0.00 | 0.02 | 80 | 1017.3 |
| 20260904153852 | 80 | 4 | 0.0 | 0.0 | 185.41 | 0.00 | 0.02 | 80 | 1017.4 |
| 20260904153625 | 80 | 4 | 0.0 | 0.0 | 185.41 | 0.00 | 0.02 | 80 | 1017.5 |
| 20260904152852 | 80 | 4 | 0.0 | 0.0 | 185.41 | 0.00 | 0.02 | 80 | 1017.5 |
| 20260904152352 | 80 | 4 | 0.0 | 0.0 | 185.41 | 0.00 | 0.02 | 80 | 1017.3 |
| 20260904151853 | 80 | 4 | 0.0 | 0.0 | 185.41 | 0.00 | 0.02 | 80 | 1017.3 |
| 20260904151149 | 80 | 4 | 0.0 | 0.0 | 185.41 | 0.00 | 0.02 | 80 | 1017.2 |
| 20260904150852 | 80 | 4 | 0.0 | 0.0 | 185.41 | 0.00 | 0.02 | 80 | 1017.2 |
| 20260904150354 | 80 | 4 | 0.0 | 0.0 | 185.41 | 0.00 | 0.02 | 80 | 1017.1 |
| 20260904145352 | 80 | 4 | 0.0 | 0.0 | 185.41 | 0.00 | 0.02 | 80 | 1017.1 |
| 20260904145156 | 79 | 4 | 0.0 | 0.0 | 185.41 | 0.00 | 0.02 | 81 | 1016.8 |
| 20260904144853 | 79 | 4 | 0.0 | 0.0 | 185.41 | 0.00 | 0.02 | 81 | 1016.9 |
| 20260904144352 | 79 | 4 | 0.0 | 0.0 | 185.41 | 0.00 | 0.02 | 81 | 1016.8 |
| 20260904143854 | 79 | 4 | 0.0 | 0.0 | 185.41 | 0.00 | 0.02 | 83 | 1016.8 |
| 20260904143353 | 79 | 4 | 0.0 | 0.0 | 185.41 | 0.00 | 0.02 | 82 | 1016.7 |
| 20260904142856 | 79 | 4 | 0.0 | 0.0 | 185.41 | 0.00 | 0.02 | 81 | 1016.4 |
| 20260904142352 | 79 | 4 | 0.0 | 0.0 | 185.41 | 0.00 | 0.02 | 81 | 1016.5 |
| 20260904141853 | 78 | 4 | 0.0 | 0.0 | 185.41 | 0.00 | 0.02 | 82 | 1016.7 |
| 20260904141352 | 79 | 4 | 0.0 | 0.0 | 185.41 | 0.00 | 0.02 | 82 | 1016.8 |
| 20260904140852 | 78 | 4 | 0.0 | 0.0 | 185.41 | 0.00 | 0.02 | 82 | 1016.9 |
| 20260904140353 | 78 | 4 | 0.0 | 0.0 | 185.41 | 0.00 | 0.02 | 82 | 1016.9 |
| 20260904135855 | 78 | 4 | 0.0 | 0.0 | 185.40 | 0.00 | 0.01 | 82 | 1016.7 |
| 20260904135841 | 78 | 4 | 0.0 | 0.0 | 185.39 | 0.00 | 0.00 | 84 | 1016.3 |
| 20260904135353 | 78 | 4 | 0.0 | 0.0 | 185.39 | 0.00 | 0.00 | 82 | 1016.7 |
| 20260904134854 | 78 | 4 | 0.0 | 0.0 | 185.39 | 0.00 | 0.00 | 83 | 1016.6 |
| 20260904134352 | 78 | 4 | 0.0 | 0.0 | 185.39 | 0.00 | 0.00 | 84 | 1016.5 |
| 20260904133852 | 78 | 4 | 0.0 | 0.0 | 185.39 | 0.00 | 0.00 | 84 | 1016.3 |
| 20260904132852 | 77 | 4 | 0.0 | 0.0 | 185.39 | 0.00 | 0.00 | 85 | 1016.3 |
| 20260904132352 | 77 | 4 | 3.0 | 0.0 | 185.39 | 0.00 | 0.00 | 85 | 1016.5 |
| 20260904131353 | 76 | 20 | 2.0 | 0.0 | 185.39 | 0.00 | 0.00 | 86 | 1016.3 |
| 20260904130853 | 76 | 143 | 1.0 | 0.0 | 185.39 | 0.00 | 0.00 | 86 | 1016.3 |
| 20260904130352 | 75 | 160 | 0.0 | 0.0 | 185.39 | 0.00 | 0.00 | 86 | 1016.3 |
| 20260904130013 | 75 | 160 | 0.0 | 0.0 | 185.39 | 0.00 | 0.00 | 86 | 1016.4 |
| 20260904125852 | 75 | 160 | 0.0 | 0.0 | 185.39 | 0.00 | 0.00 | 86 | 1016.4 |
| 20260904125354 | 75 | 201 | 1.0 | 0.0 | 185.39 | 0.00 | 0.00 | 86 | 1016.5 |
| 20260904124358 | 75 | 193 | 0.0 | 0.0 | 185.39 | 0.00 | 0.00 | 87 | 1016.7 |
| 20260904123352 | 74 | 65 | 0.0 | 0.0 | 185.39 | 0.00 | 0.00 | 86 | 1016.6 |
| 20260904123012 | 74 | 277 | 0.0 | 0.0 | 185.39 | 0.00 | 0.00 | 86 | 1016.7 |
| 20260904122852 | 74 | 277 | 0.0 | 0.0 | 185.39 | 0.00 | 0.00 | 86 | 1016.7 |
| 20260904122352 | 74 | 277 | 0.0 | 0.0 | 185.39 | 0.00 | 0.00 | 86 | 1016.7 |
| 20260904121852 | 73 | 277 | 0.0 | 0.0 | 185.39 | 0.00 | 0.00 | 86 | 1016.7 |
| 20260904121352 | 73 | 277 | 0.0 | 0.0 | 185.39 | 0.00 | 0.00 | 86 | 1016.7 |
| 20260904120852 | 73 | 277 | 0.0 | 0.0 | 185.39 | 0.00 | 0.00 | 86 | 1016.7 |
| 20260904115857 | 73 | 277 | 0.0 | 0.0 | 185.39 | 0.00 | 0.00 | 86 | 1016.6 |
| 20260904114852 | 73 | 277 | 0.0 | 0.0 | 185.39 | 0.00 | 0.00 | 85 | 1016.7 |
| 20260904114352 | 72 | 277 | 0.0 | 0.0 | 185.39 | 0.00 | 0.00 | 85 | 1016.5 |
| 20260904113352 | 72 | 277 | 0.0 | 0.0 | 185.39 | 0.00 | 0.00 | 85 | 1016.2 |
| 20260904113015 | 72 | 277 | 0.0 | 0.0 | 185.39 | 0.00 | 0.00 | 85 | 1016.1 |
| 20260904112852 | 72 | 277 | 0.0 | 0.0 | 185.39 | 0.00 | 0.00 | 85 | 1016.1 |
| 20260904112513 | 72 | 277 | 0.0 | 0.0 | 185.39 | 0.00 | 0.00 | 85 | 1016.0 |
| 20260904112352 | 72 | 277 | 0.0 | 0.0 | 185.39 | 0.00 | 0.00 | 85 | 1016.0 |
| 20260904111352 | 72 | 277 | 0.0 | 0.0 | 185.39 | 0.00 | 0.00 | 85 | 1015.8 |
| 20260904111014 | 72 | 277 | 0.0 | 0.0 | 185.39 | 0.00 | 0.00 | 85 | 1015.8 |
| 20260904110852 | 72 | 277 | 0.0 | 0.0 | 185.39 | 0.00 | 0.00 | 85 | 1015.8 |
| 20260904110015 | 72 | 277 | 0.0 | 0.0 | 185.39 | 0.00 | 0.00 | 85 | 1015.7 |
| 20260904105852 | 72 | 277 | 0.0 | 0.0 | 185.39 | 0.00 | 0.00 | 85 | 1015.7 |
| 20260904103852 | 73 | 277 | 0.0 | 0.0 | 185.39 | 0.00 | 0.00 | 85 | 1015.7 |
| 20260904102352 | 73 | 277 | 0.0 | 0.0 | 185.39 | 0.00 | 0.00 | 85 | 1015.7 |
| 20260904101852 | 73 | 277 | 0.0 | 0.0 | 185.39 | 0.00 | 0.00 | 84 | 1015.7 |
| 20260904100853 | 73 | 277 | 0.0 | 0.0 | 185.39 | 0.00 | 0.00 | 84 | 1015.4 |
| 20260904100355 | 73 | 277 | 0.0 | 0.0 | 185.39 | 0.00 | 0.00 | 84 | 1015.4 |
| 20260904095852 | 73 | 277 | 0.0 | 0.0 | 185.39 | 0.00 | 0.00 | 84 | 1015.3 |
| 20260904095352 | 73 | 277 | 0.0 | 0.0 | 185.39 | 0.00 | 0.00 | 84 | 1015.4 |
| 20260904094852 | 73 | 277 | 0.0 | 0.0 | 185.39 | 0.00 | 0.00 | 84 | 1015.4 |
| 20260904094509 | 73 | 277 | 0.0 | 0.0 | 185.39 | 0.00 | 0.00 | 84 | 1015.4 |
| 20260904094352 | 73 | 277 | 0.0 | 0.0 | 185.39 | 0.00 | 0.00 | 84 | 1015.4 |
| 20260904093852 | 73 | 277 | 0.0 | 0.0 | 185.39 | 0.00 | 0.00 | 84 | 1015.4 |
| 20260904093016 | 73 | 277 | 0.0 | 0.0 | 185.39 | 0.00 | 0.00 | 84 | 1015.4 |
| 20260904092852 | 73 | 277 | 0.0 | 0.0 | 185.39 | 0.00 | 0.00 | 84 | 1015.4 |
| 20260904091852 | 74 | 277 | 0.0 | 0.0 | 185.39 | 0.00 | 0.00 | 84 | 1015.2 |
| 20260904090852 | 74 | 277 | 0.0 | 0.0 | 185.39 | 0.00 | 0.00 | 84 | 1015.1 |
| 20260904090013 | 74 | 277 | 0.0 | 0.0 | 185.39 | 0.00 | 0.00 | 84 | 1015.1 |
| 20260904085852 | 74 | 277 | 0.0 | 0.0 | 185.39 | 0.00 | 0.00 | 84 | 1015.1 |
| 20260904084852 | 74 | 277 | 0.0 | 0.0 | 185.39 | 0.00 | 0.00 | 84 | 1015.1 |
| 20260904083852 | 74 | 277 | 0.0 | 0.0 | 185.39 | 0.00 | 0.00 | 83 | 1015.0 |
| 20260904083352 | 74 | 277 | 0.0 | 0.0 | 185.39 | 0.00 | 0.00 | 83 | 1015.0 |
| 20260904083012 | 74 | 277 | 0.0 | 0.0 | 185.39 | 0.00 | 0.00 | 83 | 1015.1 |
| 20260904082852 | 74 | 277 | 0.0 | 0.0 | 185.39 | 0.00 | 0.00 | 83 | 1015.1 |
| 20260904082352 | 74 | 277 | 0.0 | 0.0 | 185.39 | 0.00 | 0.00 | 83 | 1015.1 |
| 20260904081852 | 74 | 277 | 0.0 | 0.0 | 185.39 | 0.00 | 0.00 | 83 | 1015.2 |
| 20260904081509 | 74 | 277 | 0.0 | 0.0 | 185.39 | 0.00 | 0.00 | 83 | 1015.2 |
| 20260904081352 | 74 | 277 | 0.0 | 0.0 | 185.39 | 0.00 | 0.00 | 83 | 1015.2 |
| 20260904080852 | 74 | 277 | 0.0 | 0.0 | 185.39 | 0.00 | 0.00 | 83 | 1015.3 |
| 20260904080352 | 74 | 277 | 0.0 | 0.0 | 185.39 | 0.00 | 0.00 | 83 | 1015.4 |
| 20260904075352 | 74 | 277 | 0.0 | 0.0 | 185.39 | 0.00 | 0.00 | 83 | 1015.4 |
| 20260904074852 | 74 | 277 | 0.0 | 0.0 | 185.39 | 0.00 | 0.00 | 83 | 1015.4 |
| 20260904074511 | 74 | 277 | 0.0 | 0.0 | 185.39 | 0.00 | 0.00 | 83 | 1015.4 |
| 20260904074352 | 74 | 277 | 0.0 | 0.0 | 185.39 | 0.00 | 0.00 | 83 | 1015.4 |
| 20260904073852 | 74 | 277 | 0.0 | 0.0 | 185.39 | 0.00 | 0.00 | 83 | 1015.4 |
| 20260904072352 | 75 | 277 | 0.0 | 0.0 | 185.39 | 0.00 | 0.00 | 82 | 1015.8 |
| 20260904071852 | 75 | 277 | 0.0 | 0.0 | 185.39 | 0.00 | 0.00 | 82 | 1015.9 |
| 20260904070852 | 75 | 277 | 0.0 | 0.0 | 185.39 | 0.00 | 0.00 | 82 | 1015.8 |
| 20260904070352 | 75 | 277 | 0.0 | 0.0 | 185.39 | 0.00 | 0.00 | 82 | 1015.8 |
| 20260904070049 | 75 | 277 | 0.0 | 0.0 | 185.39 | 0.00 | 0.00 | 82 | 1015.8 |
| 20260904070014 | 75 | 277 | 0.0 | 0.0 | 185.39 | 0.00 | 0.00 | 82 | 1015.8 |
| 20260904065852 | 75 | 277 | 0.0 | 0.0 | 185.39 | 0.00 | 0.00 | 82 | 1015.8 |
| 20260904065352 | 75 | 277 | 0.0 | 0.0 | 185.39 | 0.00 | 0.00 | 82 | 1015.9 |
| 20260904064352 | 75 | 277 | 0.0 | 0.0 | 185.39 | 0.00 | 0.00 | 82 | 1015.9 |
| 20260904063852 | 75 | 277 | 0.0 | 0.0 | 185.39 | 0.00 | 0.00 | 82 | 1015.9 |
| 20260904062851 | 75 | 277 | 0.0 | 0.0 | 185.39 | 0.00 | 0.00 | 82 | 1015.9 |
| 20260904062352 | 75 | 277 | 0.0 | 0.0 | 185.39 | 0.00 | 0.00 | 82 | 1015.9 |
| 20260904061852 | 75 | 277 | 0.0 | 0.0 | 185.39 | 0.00 | 0.00 | 82 | 1015.9 |
| 20260904061352 | 75 | 277 | 0.0 | 0.0 | 185.39 | 0.00 | 0.00 | 82 | 1015.9 |
| 20260904060851 | 75 | 277 | 0.0 | 0.0 | 185.39 | 0.00 | 0.00 | 82 | 1016.0 |
| 20260904060352 | 75 | 277 | 0.0 | 0.0 | 185.39 | 0.00 | 0.00 | 81 | 1016.1 |
| 20260904055852 | 75 | 277 | 0.0 | 0.0 | 185.39 | 0.00 | 0.00 | 82 | 1016.1 |
| 20260904055352 | 75 | 277 | 0.0 | 0.0 | 185.39 | 0.00 | 0.00 | 82 | 1016.1 |
| 20260904054852 | 75 | 277 | 0.0 | 0.0 | 185.39 | 0.00 | 0.00 | 82 | 1016.1 |
| 20260904053851 | 75 | 277 | 0.0 | 0.0 | 185.39 | 0.00 | 0.00 | 81 | 1016.1 |
| 20260904052851 | 75 | 277 | 0.0 | 0.0 | 185.39 | 0.00 | 0.00 | 81 | 1016.2 |
| 20260904052354 | 75 | 277 | 0.0 | 0.0 | 185.39 | 0.00 | 0.00 | 81 | 1016.2 |
| 20260904051853 | 75 | 277 | 0.0 | 0.0 | 185.39 | 0.00 | 0.00 | 81 | 1016.2 |
| 20260904051352 | 75 | 277 | 0.0 | 0.0 | 185.39 | 0.00 | 0.00 | 81 | 1016.2 |
| 20260904050852 | 75 | 277 | 0.0 | 0.0 | 185.39 | 0.00 | 0.00 | 81 | 1016.3 |
| 20260904050352 | 75 | 277 | 0.0 | 0.0 | 185.39 | 0.00 | 0.00 | 81 | 1016.3 |
| 20260904045851 | 75 | 277 | 0.0 | 0.0 | 185.39 | 0.00 | 0.00 | 81 | 1016.2 |
| 20260904045351 | 75 | 277 | 0.0 | 0.0 | 185.39 | 0.00 | 0.00 | 80 | 1016.2 |
| 20260904044852 | 75 | 277 | 0.0 | 0.0 | 185.39 | 0.00 | 0.00 | 80 | 1016.3 |
| 20260904044351 | 75 | 277 | 0.0 | 0.0 | 185.39 | 0.00 | 0.00 | 80 | 1016.2 |
| 20260904043013 | 76 | 277 | 0.0 | 0.0 | 185.39 | 0.00 | 0.00 | 79 | 1016.2 |
| 20260904042851 | 76 | 277 | 0.0 | 0.0 | 185.39 | 0.00 | 0.00 | 79 | 1016.2 |
| 20260904042511 | 76 | 277 | 0.0 | 0.0 | 185.39 | 0.00 | 0.00 | 79 | 1016.3 |
| 20260904042351 | 76 | 277 | 0.0 | 0.0 | 185.39 | 0.00 | 0.00 | 79 | 1016.3 |
| 20260904041017 | 76 | 277 | 0.0 | 0.0 | 185.39 | 0.00 | 0.00 | 80 | 1016.3 |
| 20260904040851 | 76 | 277 | 0.0 | 0.0 | 185.39 | 0.00 | 0.00 | 80 | 1016.3 |
| 20260904040352 | 76 | 277 | 0.0 | 0.0 | 185.39 | 0.00 | 0.00 | 79 | 1016.2 |
| 20260904040016 | 76 | 277 | 0.0 | 0.0 | 185.39 | 0.00 | 0.00 | 79 | 1016.1 |
| 20260904035853 | 76 | 277 | 0.0 | 0.0 | 185.39 | 0.00 | 0.00 | 79 | 1016.1 |
| 20260904035351 | 76 | 277 | 0.0 | 0.0 | 185.39 | 0.00 | 0.00 | 79 | 1016.2 |
| 20260904034852 | 76 | 277 | 0.0 | 0.0 | 185.39 | 0.00 | 0.00 | 79 | 1016.2 |
| 20260904034351 | 76 | 277 | 0.0 | 0.0 | 185.39 | 0.00 | 0.00 | 79 | 1016.2 |
| 20260904033852 | 76 | 277 | 0.0 | 0.0 | 185.39 | 0.00 | 0.00 | 79 | 1016.2 |
| 20260904032851 | 77 | 277 | 0.0 | 0.0 | 185.39 | 0.00 | 0.00 | 78 | 1016.2 |
| 20260904032512 | 77 | 277 | 0.0 | 0.0 | 185.39 | 0.00 | 0.00 | 78 | 1016.3 |
| 20260904032351 | 77 | 277 | 0.0 | 0.0 | 185.39 | 0.00 | 0.00 | 78 | 1016.3 |
| 20260904031853 | 77 | 277 | 0.0 | 0.0 | 185.39 | 0.00 | 0.00 | 78 | 1016.4 |
| 20260904030851 | 77 | 277 | 0.0 | 0.0 | 185.39 | 0.00 | 0.00 | 78 | 1016.4 |
| 20260904030011 | 77 | 277 | 0.0 | 0.0 | 185.39 | 0.00 | 0.00 | 77 | 1016.5 |
| 20260904025851 | 77 | 277 | 0.0 | 0.0 | 185.39 | 0.00 | 0.00 | 77 | 1016.5 |
| 20260904024852 | 77 | 277 | 0.0 | 0.0 | 185.39 | 0.00 | 0.00 | 76 | 1016.6 |
| 20260904024352 | 77 | 277 | 0.0 | 0.0 | 185.39 | 0.00 | 0.00 | 76 | 1016.6 |
| 20260904022851 | 78 | 277 | 0.0 | 0.0 | 185.39 | 0.00 | 0.00 | 75 | 1016.6 |
| 20260904022351 | 78 | 277 | 0.0 | 0.0 | 185.39 | 0.00 | 0.00 | 74 | 1016.6 |
| 20260904021515 | 78 | 277 | 0.0 | 0.0 | 185.39 | 0.00 | 0.00 | 74 | 1016.6 |
| 20260904021351 | 78 | 277 | 0.0 | 0.0 | 185.39 | 0.00 | 0.00 | 74 | 1016.6 |
| 20260904014852 | 79 | 277 | 0.0 | 0.0 | 185.39 | 0.00 | 0.00 | 71 | 1016.6 |
| 20260904014351 | 79 | 277 | 0.0 | 0.0 | 185.39 | 0.00 | 0.00 | 71 | 1016.6 |
| 20260904013851 | 80 | 277 | 0.0 | 0.0 | 185.39 | 0.00 | 0.00 | 71 | 1016.5 |
| 20260904012352 | 80 | 277 | 0.0 | 0.0 | 185.39 | 0.00 | 0.00 | 69 | 1016.4 |
| 20260904011851 | 80 | 277 | 0.0 | 0.0 | 185.39 | 0.00 | 0.00 | 69 | 1016.4 |
| 20260904011353 | 80 | 277 | 0.0 | 0.0 | 185.39 | 0.00 | 0.00 | 68 | 1016.1 |
| 20260904010851 | 80 | 277 | 0.0 | 0.0 | 185.39 | 0.00 | 0.00 | 67 | 1016.2 |
| 20260904005851 | 81 | 277 | 0.0 | 0.0 | 185.39 | 0.00 | 0.00 | 67 | 1016.4 |
| 20260904004851 | 81 | 277 | 0.0 | 0.0 | 185.39 | 0.00 | 0.00 | 66 | 1016.5 |
| 20260904004351 | 81 | 277 | 0.0 | 0.0 | 185.39 | 0.00 | 0.00 | 66 | 1016.4 |
| 20260904003851 | 82 | 277 | 0.0 | 0.0 | 185.39 | 0.00 | 0.00 | 65 | 1016.6 |
| 20260904002851 | 82 | 277 | 0.0 | 0.0 | 185.39 | 0.00 | 0.00 | 56 | 1016.4 |
| 20260904002351 | 83 | 277 | 0.0 | 0.0 | 185.39 | 0.00 | 0.00 | 64 | 1016.1 |
| 20260904001851 | 83 | 277 | 0.0 | 0.0 | 185.39 | 0.00 | 0.00 | 63 | 1016.1 |
| 20260904000851 | 84 | 277 | 0.0 | 0.0 | 185.39 | 0.00 | 0.00 | 62 | 1016.0 |
| 20260903235351 | 87 | 277 | 0.0 | 0.0 | 185.39 | 0.00 | 0.00 | 63 | 1016.0 |
| 20260903234851 | 88 | 277 | 0.0 | 0.0 | 185.39 | 0.00 | 0.00 | 63 | 1015.9 |
| 20260903234351 | 89 | 277 | 0.0 | 0.0 | 185.39 | 0.00 | 0.00 | 61 | 1015.8 |
| 20260903233852 | 89 | 277 | 0.0 | 0.0 | 185.39 | 0.00 | 0.00 | 59 | 1015.7 |
| 20260903232851 | 91 | 277 | 0.0 | 0.0 | 185.39 | 0.00 | 0.00 | 55 | 1015.5 |
| 20260903232351 | 91 | 277 | 0.0 | 0.0 | 185.39 | 0.00 | 0.00 | 54 | 1015.4 |
| 20260903231851 | 92 | 277 | 0.0 | 0.0 | 185.39 | 0.00 | 0.00 | 52 | 1015.4 |
| 20260903231351 | 92 | 277 | 0.0 | 0.0 | 185.39 | 0.00 | 0.00 | 50 | 1015.3 |
| 20260903230851 | 92 | 277 | 0.0 | 0.0 | 185.39 | 0.00 | 0.00 | 49 | 1015.2 |
| 20260903225851 | 93 | 277 | 0.0 | 0.0 | 185.39 | 0.00 | 0.00 | 47 | 1015.3 |
| 20260903224852 | 95 | 277 | 0.0 | 0.0 | 185.39 | 0.00 | 0.00 | 45 | 1015.3 |
| 20260903224351 | 95 | 277 | 0.0 | 0.0 | 185.39 | 0.00 | 0.00 | 44 | 1015.3 |
| 20260903223851 | 95 | 277 | 0.0 | 0.0 | 185.39 | 0.00 | 0.00 | 44 | 1015.3 |
| 20260903223351 | 95 | 277 | 0.0 | 0.0 | 185.39 | 0.00 | 0.00 | 44 | 1015.3 |
| 20260903222351 | 96 | 277 | 0.0 | 0.0 | 185.39 | 0.00 | 0.00 | 42 | 1015.2 |
| 20260903221851 | 96 | 277 | 0.0 | 0.0 | 185.39 | 0.00 | 0.00 | 41 | 1015.3 |
| 20260903221351 | 96 | 277 | 0.0 | 0.0 | 185.39 | 0.00 | 0.00 | 41 | 1015.2 |
| 20260903220351 | 97 | 277 | 0.0 | 0.0 | 185.39 | 0.00 | 0.00 | 40 | 1015.2 |
| 20260903215853 | 97 | 277 | 0.0 | 0.0 | 185.39 | 0.00 | 0.00 | 40 | 1015.1 |
| 20260903215351 | 97 | 277 | 0.0 | 0.0 | 185.39 | 0.00 | 0.00 | 40 | 1015.0 |
| 20260903214851 | 97 | 277 | 0.0 | 0.0 | 185.39 | 0.00 | 0.00 | 40 | 1015.0 |
| 20260903214351 | 97 | 298 | 3.0 | 0.0 | 185.39 | 0.00 | 0.00 | 40 | 1015.1 |
| 20260903213351 | 97 | 236 | 5.0 | 0.0 | 185.39 | 0.00 | 0.00 | 41 | 1015.0 |
| 20260903212851 | 97 | 273 | 6.0 | 0.0 | 185.39 | 0.00 | 0.00 | 40 | 1014.9 |
| 20260903212351 | 97 | 308 | 1.0 | 0.0 | 185.39 | 0.00 | 0.00 | 40 | 1014.6 |
| 20260903211851 | 97 | 181 | 0.0 | 0.0 | 185.39 | 0.00 | 0.00 | 40 | 1014.4 |
| 20260903211351 | 97 | 181 | 0.0 | 0.0 | 185.39 | 0.00 | 0.00 | 39 | 1014.3 |
| 20260903210351 | 97 | 297 | 4.0 | 0.0 | 185.39 | 0.00 | 0.00 | 40 | 1014.2 |
| 20260903205851 | 97 | 280 | 5.0 | 0.0 | 185.39 | 0.00 | 0.00 | 40 | 1014.3 |
| 20260903204851 | 97 | 7 | 0.0 | 0.0 | 185.39 | 0.00 | 0.00 | 40 | 1014.2 |
| 20260903202851 | 97 | 24 | 0.0 | 0.0 | 185.39 | 0.00 | 0.00 | 41 | 1014.1 |
| 20260903202351 | 97 | 309 | 4.0 | 0.0 | 185.39 | 0.00 | 0.00 | 40 | 1014.2 |
| 20260903201851 | 97 | 250 | 3.0 | 0.0 | 185.39 | 0.00 | 0.00 | 39 | 1014.3 |
| 20260903200851 | 98 | 257 | 8.0 | 0.0 | 185.39 | 0.00 | 0.00 | 40 | 1014.5 |
| 20260903200351 | 97 | 329 | 7.0 | 0.0 | 185.39 | 0.00 | 0.00 | 41 | 1014.6 |
| 20260903195851 | 97 | 284 | 4.0 | 0.0 | 185.39 | 0.00 | 0.00 | 41 | 1014.7 |
| 20260903195351 | 97 | 165 | 2.0 | 0.0 | 185.39 | 0.00 | 0.00 | 40 | 1014.8 |
| 20260903194851 | 97 | 257 | 3.0 | 0.0 | 185.39 | 0.00 | 0.00 | 40 | 1015.0 |
| 20260903194351 | 96 | 86 | 2.0 | 0.0 | 185.39 | 0.00 | 0.00 | 42 | 1015.1 |
| 20260903192851 | 96 | 233 | 0.0 | 0.0 | 185.39 | 0.00 | 0.00 | 44 | 1015.5 |
| 20260903192351 | 96 | 233 | 0.0 | 0.0 | 185.39 | 0.00 | 0.00 | 42 | 1015.7 |
| 20260903191851 | 96 | 212 | 4.0 | 0.0 | 185.39 | 0.00 | 0.00 | 42 | 1015.8 |
| 20260903191352 | 97 | 309 | 5.0 | 0.0 | 185.39 | 0.00 | 0.00 | 41 | 1015.9 |